Time,TemperatureF,DewpointF,PressureIn,WindDirection,WindDirectionDegrees,WindSpeedMPH,WindSpeedGustMPH,Humidity,HourlyPrecipIn,Conditions,Clouds,dailyrainin,SoftwareType,DateUTC
2013-08-05 00:02:00,81.7,54.4,30.01,East,90,2.0,2.5,39,0.00,,,0.00,WUHU216HW,2013-08-05 07:02:00,
2013-08-05 00:07:00,81.4,54.1,30.01,ESE,113,2.5,2.9,39,0.00,,,0.00,WUHU216HW,2013-08-05 07:07:00,
2013-08-05 00:12:00,81.2,53.9,30.01,ENE,68,3.4,3.4,39,0.00,,,0.00,WUHU216HW,2013-08-05 07:12:00,
2013-08-05 00:17:00,81.0,53.7,30.01,East,90,3.8,3.8,39,0.00,,,0.00,WUHU216HW,2013-08-05 07:17:00,
2013-08-05 00:22:00,80.8,53.6,30.01,ENE,68,2.2,3.8,39,0.00,,,0.00,WUHU216HW,2013-08-05 07:22:00,
2013-08-05 00:27:00,80.6,54.2,30.01,ENE,68,3.4,4.0,40,0.00,,,0.00,WUHU216HW,2013-08-05 07:27:00,
2013-08-05 00:32:00,80.6,54.2,30.01,ESE,113,3.1,4.0,40,0.00,,,0.00,WUHU216HW,2013-08-05 07:32:00,
2013-08-05 00:37:00,80.5,54.0,30.01,ENE,68,3.4,4.0,40,0.00,,,0.00,WUHU216HW,2013-08-05 07:37:00,
2013-08-05 00:42:00,80.5,54.0,30.01,ESE,113,4.7,5.1,40,0.00,,,0.00,WUHU216HW,2013-08-05 07:42:00,
2013-08-05 00:47:00,80.3,53.8,30.02,ESE,113,4.0,5.4,40,0.00,,,0.00,WUHU216HW,2013-08-05 07:47:00,
2013-08-05 00:52:00,80.3,53.8,30.01,East,90,4.0,5.4,40,0.00,,,0.00,WUHU216HW,2013-08-05 07:52:00,
2013-08-05 00:57:00,80.3,54.5,30.01,East,90,2.9,5.1,41,0.00,,,0.00,WUHU216HW,2013-08-05 07:57:00,
2013-08-05 01:02:00,80.1,54.3,30.01,East,90,4.0,4.7,41,0.00,,,0.00,WUHU216HW,2013-08-05 08:02:00,
2013-08-05 01:07:00,80.1,54.3,30.00,East,90,3.1,4.7,41,0.00,,,0.00,WUHU216HW,2013-08-05 08:07:00,
2013-08-05 01:12:00,79.9,54.2,30.00,East,90,2.5,4.3,41,0.00,,,0.00,WUHU216HW,2013-08-05 08:12:00,
2013-08-05 01:17:00,79.7,54.0,30.00,ENE,68,3.6,3.6,41,0.00,,,0.00,WUHU216HW,2013-08-05 08:17:00,
2013-08-05 01:22:00,79.7,54.0,30.00,ENE,68,2.5,3.8,41,0.00,,,0.00,WUHU216HW,2013-08-05 08:22:00,
2013-08-05 01:27:00,79.7,54.0,30.01,East,90,2.7,4.5,41,0.00,,,0.00,WUHU216HW,2013-08-05 08:27:00,
2013-08-05 01:32:00,79.6,53.8,30.01,ESE,113,2.9,4.7,41,0.00,,,0.00,WUHU216HW,2013-08-05 08:32:00,
2013-08-05 01:37:00,79.6,53.8,30.01,East,90,4.0,4.7,41,0.00,,,0.00,WUHU216HW,2013-08-05 08:37:00,
2013-08-05 01:42:00,79.6,53.8,30.01,ENE,68,5.4,6.0,41,0.00,,,0.00,WUHU216HW,2013-08-05 08:42:00,
2013-08-05 01:47:00,79.7,54.0,30.02,East,90,3.8,6.3,41,0.00,,,0.00,WUHU216HW,2013-08-05 08:47:00,
2013-08-05 01:52:00,79.9,53.6,30.01,ESE,113,2.5,6.3,40,0.00,,,0.00,WUHU216HW,2013-08-05 08:52:00,
2013-08-05 01:58:00,79.9,53.6,30.01,ESE,113,5.4,6.9,40,0.00,,,0.00,WUHU216HW,2013-08-05 08:58:00,
2013-08-05 02:02:00,79.9,54.2,30.01,East,90,6.9,7.2,41,0.00,,,0.00,WUHU216HW,2013-08-05 09:02:00,
2013-08-05 02:08:00,79.9,54.2,30.01,East,90,2.0,7.2,41,0.00,,,0.00,WUHU216HW,2013-08-05 09:08:00,
2013-08-05 02:13:00,79.9,54.2,30.01,ENE,68,1.8,6.9,41,0.00,,,0.00,WUHU216HW,2013-08-05 09:13:00,
2013-08-05 02:18:00,79.7,54.0,30.01,NE,45,1.1,2.7,41,0.00,,,0.00,WUHU216HW,2013-08-05 09:18:00,
2013-08-05 02:23:00,79.6,53.8,30.01,East,90,1.1,2.9,41,0.00,,,0.00,WUHU216HW,2013-08-05 09:23:00,
2013-08-05 02:28:00,79.6,53.8,30.01,East,90,1.8,2.9,41,0.00,,,0.00,WUHU216HW,2013-08-05 09:28:00,
2013-08-05 02:33:00,79.6,53.8,30.01,ESE,113,2.5,3.4,41,0.00,,,0.00,WUHU216HW,2013-08-05 09:33:00,
2013-08-05 02:38:00,79.6,53.8,30.01,East,90,4.7,6.0,41,0.00,,,0.00,WUHU216HW,2013-08-05 09:38:00,
2013-08-05 02:44:00,79.4,54.3,30.01,ESE,113,4.9,6.3,42,0.00,,,0.00,WUHU216HW,2013-08-05 09:44:00,
2013-08-05 02:49:00,79.4,54.3,30.01,ESE,113,7.6,7.6,42,0.00,,,0.00,WUHU216HW,2013-08-05 09:49:00,
2013-08-05 02:54:00,79.4,54.9,30.01,SE,135,6.3,10.3,43,0.00,,,0.00,WUHU216HW,2013-08-05 09:54:00,
2013-08-05 02:59:00,79.4,54.9,30.01,East,90,3.8,10.3,43,0.00,,,0.00,WUHU216HW,2013-08-05 09:59:00,
2013-08-05 03:04:00,79.4,54.9,30.00,ESE,113,4.9,8.5,43,0.00,,,0.00,WUHU216HW,2013-08-05 10:04:00,
2013-08-05 03:09:00,79.2,54.7,30.00,ESE,113,8.1,8.5,43,0.00,,,0.00,WUHU216HW,2013-08-05 10:09:00,
2013-08-05 03:14:00,79.2,54.7,30.00,ESE,113,8.1,8.5,43,0.00,,,0.00,WUHU216HW,2013-08-05 10:14:00,
2013-08-05 03:20:00,79.2,54.7,30.00,East,90,5.8,8.1,43,0.00,,,0.00,WUHU216HW,2013-08-05 10:20:00,
2013-08-05 03:25:00,79.2,54.7,30.00,ESE,113,4.3,8.1,43,0.00,,,0.00,WUHU216HW,2013-08-05 10:25:00,
2013-08-05 03:31:00,79.2,55.4,30.01,East,90,6.3,7.2,44,0.00,,,0.00,WUHU216HW,2013-08-05 10:31:00,
2013-08-05 03:36:00,79.2,55.4,30.01,East,90,6.0,8.1,44,0.00,,,0.00,WUHU216HW,2013-08-05 10:36:00,
2013-08-05 03:41:00,79.2,55.4,30.01,ENE,68,5.6,8.1,44,0.00,,,0.00,WUHU216HW,2013-08-05 10:41:00,
2013-08-05 03:46:00,79.2,55.4,30.01,ENE,68,4.5,6.0,44,0.00,,,0.00,WUHU216HW,2013-08-05 10:46:00,
2013-08-05 03:51:00,79.2,55.4,30.01,ESE,113,6.0,6.0,44,0.00,,,0.00,WUHU216HW,2013-08-05 10:51:00,
2013-08-05 03:56:00,79.2,56.0,30.02,ESE,113,6.5,7.6,45,0.00,,,0.00,WUHU216HW,2013-08-05 10:56:00,
2013-08-05 04:02:00,79.2,56.0,30.02,ESE,113,9.2,9.6,45,0.00,,,0.00,WUHU216HW,2013-08-05 11:02:00,
2013-08-05 04:07:00,79.2,56.0,30.02,East,90,6.0,9.6,45,0.00,,,0.00,WUHU216HW,2013-08-05 11:07:00,
2013-08-05 04:12:00,79.2,56.0,30.03,SSE,158,9.2,11.9,45,0.00,,,0.00,WUHU216HW,2013-08-05 11:12:00,
2013-08-05 04:17:00,79.2,56.0,30.03,ESE,113,5.8,11.9,45,0.00,,,0.00,WUHU216HW,2013-08-05 11:17:00,
2013-08-05 04:22:00,79.4,56.1,30.03,SSE,158,7.6,9.2,45,0.00,,,0.00,WUHU216HW,2013-08-05 11:22:00,
2013-08-05 04:27:00,79.4,56.1,30.03,East,90,9.8,10.1,45,0.00,,,0.00,WUHU216HW,2013-08-05 11:27:00,
2013-08-05 04:32:00,79.4,56.1,30.04,ENE,68,5.1,10.1,45,0.00,,,0.00,WUHU216HW,2013-08-05 11:32:00,
2013-08-05 04:37:00,79.6,56.3,30.05,SE,135,9.6,10.1,45,0.00,,,0.00,WUHU216HW,2013-08-05 11:37:00,
2013-08-05 04:43:00,79.6,56.3,30.05,SSE,158,7.6,12.1,45,0.00,,,0.00,WUHU216HW,2013-08-05 11:43:00,
2013-08-05 04:48:00,79.7,56.4,30.06,SE,135,9.6,12.1,45,0.00,,,0.00,WUHU216HW,2013-08-05 11:48:00,
2013-08-05 04:53:00,79.7,56.4,30.06,SE,135,11.4,11.9,45,0.00,,,0.00,WUHU216HW,2013-08-05 11:53:00,
2013-08-05 04:58:00,79.9,56.0,30.07,ENE,68,11.4,11.9,44,0.00,,,0.00,WUHU216HW,2013-08-05 11:58:00,
2013-08-05 05:03:00,80.3,56.4,30.08,East,90,7.4,15.9,44,0.00,,,0.00,WUHU216HW,2013-08-05 12:03:00,
2013-08-05 05:08:00,80.3,56.4,30.09,SE,135,19.5,19.5,44,0.00,,,0.00,WUHU216HW,2013-08-05 12:08:00,
2013-08-05 05:12:00,80.3,56.9,30.09,SE,135,18.3,21.5,45,0.00,,,0.00,WUHU216HW,2013-08-05 12:12:00,
2013-08-05 05:18:00,79.7,58.2,30.09,SE,135,12.1,21.7,48,0.00,,,0.00,WUHU216HW,2013-08-05 12:18:00,
2013-08-05 05:23:00,78.7,59.1,30.09,SE,135,12.8,21.7,51,0.00,,,0.00,WUHU216HW,2013-08-05 12:23:00,
2013-08-05 05:28:00,77.6,59.0,30.09,SE,135,21.5,21.5,53,0.00,,,0.00,WUHU216HW,2013-08-05 12:28:00,
2013-08-05 05:33:00,77.0,59.0,30.09,ESE,113,9.8,21.5,54,0.00,,,0.00,WUHU216HW,2013-08-05 12:33:00,
2013-08-05 05:38:00,76.9,59.0,30.09,East,90,19.7,20.1,54,0.00,,,0.00,WUHU216HW,2013-08-05 12:38:00,
2013-08-05 05:43:00,76.9,58.4,30.09,East,90,11.4,20.1,53,0.00,,,0.00,WUHU216HW,2013-08-05 12:43:00,
2013-08-05 05:49:00,77.0,58.1,30.09,ENE,68,19.9,19.9,52,0.00,,,0.00,WUHU216HW,2013-08-05 12:49:00,
2013-08-05 05:54:00,77.4,58.4,30.09,NNE,23,8.1,19.9,52,0.00,,,0.00,WUHU216HW,2013-08-05 12:54:00,
2013-08-05 05:59:00,77.6,58.1,30.09,ESE,113,9.4,19.9,51,0.00,,,0.00,WUHU216HW,2013-08-05 12:59:00,
2013-08-05 06:04:00,77.8,57.7,30.09,ENE,68,10.7,17.2,50,0.00,,,0.00,WUHU216HW,2013-08-05 13:04:00,
2013-08-05 06:09:00,77.8,57.7,30.09,ENE,68,9.8,15.9,50,0.00,,,0.00,WUHU216HW,2013-08-05 13:09:00,
2013-08-05 06:14:00,77.9,57.2,30.09,East,90,12.8,18.6,49,0.00,,,0.00,WUHU216HW,2013-08-05 13:14:00,
2013-08-05 06:19:00,78.1,57.4,30.09,SE,135,11.2,18.6,49,0.00,,,0.00,WUHU216HW,2013-08-05 13:19:00,
2013-08-05 06:24:00,78.1,57.4,30.09,ESE,113,8.7,14.8,49,0.00,,,0.00,WUHU216HW,2013-08-05 13:24:00,
2013-08-05 06:29:00,78.1,57.4,30.09,ESE,113,13.4,15.4,49,0.00,,,0.00,WUHU216HW,2013-08-05 13:29:00,
2013-08-05 06:34:00,78.1,57.4,30.09,ESE,113,11.9,15.4,49,0.00,,,0.00,WUHU216HW,2013-08-05 13:34:00,
2013-08-05 06:39:00,78.1,57.4,30.09,SE,135,7.6,13.6,49,0.00,,,0.00,WUHU216HW,2013-08-05 13:39:00,
2013-08-05 06:44:00,78.1,57.4,30.09,SSE,158,11.4,13.6,49,0.00,,,0.00,WUHU216HW,2013-08-05 13:44:00,
2013-08-05 06:49:00,78.1,57.4,30.10,ENE,68,5.1,12.5,49,0.00,,,0.00,WUHU216HW,2013-08-05 13:49:00,
2013-08-05 06:54:00,78.1,57.4,30.10,SE,135,10.5,12.5,49,0.00,,,0.00,WUHU216HW,2013-08-05 13:54:00,
2013-08-05 06:59:00,78.1,57.4,30.10,SSE,158,10.3,11.9,49,0.00,,,0.00,WUHU216HW,2013-08-05 13:59:00,
2013-08-05 07:04:00,78.1,57.4,30.09,SE,135,8.7,11.9,49,0.00,,,0.00,WUHU216HW,2013-08-05 14:04:00,
2013-08-05 07:09:00,78.5,57.8,30.09,ESE,113,6.3,10.7,49,0.00,,,0.00,WUHU216HW,2013-08-05 14:09:00,
2013-08-05 07:15:00,78.5,58.3,30.09,ESE,113,9.2,11.4,50,0.00,,,0.00,WUHU216HW,2013-08-05 14:15:00,
2013-08-05 07:20:00,78.5,58.3,30.09,SE,135,10.5,15.0,50,0.00,,,0.00,WUHU216HW,2013-08-05 14:20:00,
2013-08-05 07:24:00,78.5,58.3,30.09,ESE,113,10.1,15.0,50,0.00,,,0.00,WUHU216HW,2013-08-05 14:24:00,
2013-08-05 07:29:00,78.7,58.5,30.09,ESE,113,9.2,13.6,50,0.00,,,0.00,WUHU216HW,2013-08-05 14:29:00,
2013-08-05 07:35:00,78.8,58.7,30.09,SE,135,12.8,13.2,50,0.00,,,0.00,WUHU216HW,2013-08-05 14:35:00,
2013-08-05 07:40:00,79.0,58.2,30.09,South,180,10.5,13.2,49,0.00,,,0.00,WUHU216HW,2013-08-05 14:40:00,
2013-08-05 07:45:00,79.2,57.8,30.09,ESE,113,12.5,12.8,48,0.00,,,0.00,WUHU216HW,2013-08-05 14:45:00,
2013-08-05 07:50:00,79.6,57.5,30.08,ESE,113,9.6,12.5,47,0.00,,,0.00,WUHU216HW,2013-08-05 14:50:00,
2013-08-05 07:56:00,79.7,57.1,30.08,SE,135,7.8,12.5,46,0.00,,,0.00,WUHU216HW,2013-08-05 14:56:00,
2013-08-05 08:01:00,80.1,57.3,30.08,SSE,158,7.2,11.0,46,0.00,,,0.00,WUHU216HW,2013-08-05 15:01:00,
2013-08-05 08:07:00,80.3,56.9,30.07,SE,135,5.8,10.1,45,0.00,,,0.00,WUHU216HW,2013-08-05 15:07:00,
2013-08-05 08:12:00,80.5,57.1,30.07,South,180,4.9,10.1,45,0.00,,,0.00,WUHU216HW,2013-08-05 15:12:00,
2013-08-05 08:16:00,80.6,57.9,30.07,SSE,158,3.1,7.2,46,0.00,,,0.00,WUHU216HW,2013-08-05 15:16:00,
2013-08-05 08:22:00,81.0,58.8,30.08,ENE,68,0.9,5.1,47,0.00,,,0.00,WUHU216HW,2013-08-05 15:22:00,
2013-08-05 08:27:00,81.0,58.1,30.08,East,90,1.3,4.7,46,0.00,,,0.00,WUHU216HW,2013-08-05 15:27:00,
2013-08-05 08:32:00,81.4,58.5,30.08,East,90,3.1,3.8,46,0.00,,,0.00,WUHU216HW,2013-08-05 15:32:00,
2013-08-05 08:38:00,81.7,58.9,30.08,SSW,203,1.8,5.8,46,0.00,,,0.00,WUHU216HW,2013-08-05 15:38:00,
2013-08-05 08:43:00,82.1,59.1,30.08,SE,135,0.4,5.8,46,0.00,,,0.00,WUHU216HW,2013-08-05 15:43:00,
2013-08-05 08:48:00,82.4,58.9,30.07,NNW,338,1.8,4.0,45,0.00,,,0.00,WUHU216HW,2013-08-05 15:48:00,
2013-08-05 08:53:00,82.3,58.7,30.07,NW,315,1.8,2.9,45,0.00,,,0.00,WUHU216HW,2013-08-05 15:53:00,
2013-08-05 08:58:00,82.4,58.9,30.07,NW,315,3.6,3.6,45,0.00,,,0.00,WUHU216HW,2013-08-05 15:58:00,
2013-08-05 09:03:00,82.4,58.2,30.07,WNW,293,2.5,4.5,44,0.00,,,0.00,WUHU216HW,2013-08-05 16:03:00,
2013-08-05 09:08:00,82.8,58.6,30.07,WNW,293,4.7,4.7,44,0.00,,,0.00,WUHU216HW,2013-08-05 16:08:00,
2013-08-05 09:13:00,83.0,58.2,30.07,North,0,1.1,4.7,43,0.00,,,0.00,WUHU216HW,2013-08-05 16:13:00,
2013-08-05 09:19:00,83.5,56.0,30.06,NNW,338,9.8,9.8,39,0.00,,,0.00,WUHU216HW,2013-08-05 16:19:00,
2013-08-05 09:24:00,84.6,53.8,30.06,NW,315,11.6,13.2,35,0.00,,,0.00,WUHU216HW,2013-08-05 16:24:00,
2013-08-05 09:29:00,85.5,53.0,30.05,NNE,23,14.1,15.0,33,0.00,,,0.00,WUHU216HW,2013-08-05 16:29:00,
2013-08-05 09:34:00,85.7,53.2,30.05,North,0,11.9,15.2,33,0.00,,,0.00,WUHU216HW,2013-08-05 16:34:00,
2013-08-05 09:39:00,85.9,52.6,30.05,NNE,23,20.1,20.1,32,0.00,,,0.00,WUHU216HW,2013-08-05 16:39:00,
2013-08-05 09:44:00,85.9,51.8,30.05,NNE,23,9.8,22.1,31,0.00,,,0.00,WUHU216HW,2013-08-05 16:44:00,
2013-08-05 09:49:00,86.0,51.9,30.04,North,0,12.1,25.7,31,0.00,,,0.00,WUHU216HW,2013-08-05 16:49:00,
2013-08-05 09:54:00,86.0,51.1,30.03,NNE,23,17.7,25.7,30,0.00,,,0.00,WUHU216HW,2013-08-05 16:54:00,
2013-08-05 09:59:00,86.0,51.9,30.02,North,0,12.8,20.4,31,0.00,,,0.00,WUHU216HW,2013-08-05 16:59:00,
2013-08-05 10:04:00,86.0,51.1,30.01,ENE,68,8.3,23.3,30,0.00,,,0.00,WUHU216HW,2013-08-05 17:04:00,
2013-08-05 10:09:00,86.4,51.4,30.01,NNE,23,17.0,23.3,30,0.00,,,0.00,WUHU216HW,2013-08-05 17:09:00,
2013-08-05 10:14:00,86.2,51.3,30.00,North,0,9.2,26.2,30,0.00,,,0.00,WUHU216HW,2013-08-05 17:14:00,
2013-08-05 10:19:00,86.2,51.3,30.01,North,0,13.0,26.2,30,0.00,,,0.00,WUHU216HW,2013-08-05 17:19:00,
2013-08-05 10:24:00,86.6,51.6,30.03,SE,135,16.6,22.4,30,0.00,,,0.00,WUHU216HW,2013-08-05 17:24:00,
2013-08-05 10:30:00,87.1,54.4,30.03,ENE,68,10.3,16.8,33,0.00,,,0.00,WUHU216HW,2013-08-05 17:30:00,
2013-08-05 10:35:00,88.2,56.9,30.03,ESE,113,9.4,15.0,35,0.00,,,0.00,WUHU216HW,2013-08-05 17:35:00,
2013-08-05 10:40:00,88.9,57.5,30.04,SE,135,13.0,15.7,35,0.00,,,0.00,WUHU216HW,2013-08-05 17:40:00,
2013-08-05 10:45:00,89.5,58.0,30.05,East,90,11.6,15.7,35,0.00,,,0.00,WUHU216HW,2013-08-05 17:45:00,
2013-08-05 10:50:00,90.4,58.8,30.06,ESE,113,8.9,16.1,35,0.00,,,0.00,WUHU216HW,2013-08-05 17:50:00,
2013-08-05 10:56:00,91.6,59.1,30.06,ENE,68,9.4,16.1,34,0.00,,,0.00,WUHU216HW,2013-08-05 17:56:00,
2013-08-05 11:00:00,92.9,60.2,30.07,ESE,113,3.4,12.8,34,0.00,,,0.00,WUHU216HW,2013-08-05 18:00:00,
2013-08-05 11:06:00,94.1,60.5,30.07,ESE,113,11.4,14.5,33,0.00,,,0.00,WUHU216HW,2013-08-05 18:06:00,
2013-08-05 11:11:00,94.9,59.5,30.07,East,90,8.3,14.5,31,0.00,,,0.00,WUHU216HW,2013-08-05 18:11:00,
2013-08-05 11:16:00,95.2,59.9,30.07,SE,135,4.0,11.9,31,0.00,,,0.00,WUHU216HW,2013-08-05 18:16:00,
2013-08-05 11:21:00,95.4,59.9,30.08,East,90,7.6,11.9,31,0.00,,,0.00,WUHU216HW,2013-08-05 18:21:00,
2013-08-05 11:27:00,95.6,59.3,30.07,NE,45,6.7,10.1,30,0.00,,,0.00,WUHU216HW,2013-08-05 18:27:00,
2013-08-05 11:32:00,95.6,58.1,30.06,ENE,68,7.6,10.1,29,0.00,,,0.00,WUHU216HW,2013-08-05 18:32:00,
2013-08-05 11:37:00,95.8,58.3,30.06,ENE,68,2.5,9.4,29,0.00,,,0.00,WUHU216HW,2013-08-05 18:37:00,
2013-08-05 11:42:00,95.8,58.3,30.05,ENE,68,4.3,8.7,29,0.00,,,0.00,WUHU216HW,2013-08-05 18:42:00,
2013-08-05 11:47:00,95.6,58.1,30.05,ESE,113,6.0,8.7,29,0.00,,,0.00,WUHU216HW,2013-08-05 18:47:00,
2013-08-05 11:52:00,96.1,58.6,30.04,East,90,6.0,12.1,29,0.00,,,0.00,WUHU216HW,2013-08-05 18:52:00,
2013-08-05 11:57:00,96.8,59.2,30.05,ENE,68,6.3,12.1,29,0.00,,,0.00,WUHU216HW,2013-08-05 18:57:00,
2013-08-05 12:03:00,97.2,59.5,30.05,East,90,6.9,8.5,29,0.00,,,0.00,WUHU216HW,2013-08-05 19:03:00,
2013-08-05 12:08:00,97.0,58.2,30.05,NE,45,4.0,7.4,28,0.00,,,0.00,WUHU216HW,2013-08-05 19:08:00,
2013-08-05 12:13:00,96.5,59.0,30.06,SE,135,7.2,8.1,29,0.00,,,0.00,WUHU216HW,2013-08-05 19:13:00,
2013-08-05 12:18:00,97.0,59.4,30.05,SSE,158,2.9,8.1,29,0.00,,,0.00,WUHU216HW,2013-08-05 19:18:00,
2013-08-05 12:23:00,97.6,59.9,30.05,East,90,2.9,7.2,29,0.00,,,0.00,WUHU216HW,2013-08-05 19:23:00,
2013-08-05 12:28:00,98.3,58.2,30.05,NNW,338,3.4,6.7,27,0.00,,,0.00,WUHU216HW,2013-08-05 19:28:00,
2013-08-05 12:33:00,97.6,57.6,30.05,SE,135,0.4,4.3,27,0.00,,,0.00,WUHU216HW,2013-08-05 19:33:00,
2013-08-05 12:38:00,97.7,60.0,30.06,East,90,8.3,10.5,29,0.00,,,0.00,WUHU216HW,2013-08-05 19:38:00,
2013-08-05 12:43:00,99.2,59.0,30.05,SSE,158,3.1,10.5,27,0.00,,,0.00,WUHU216HW,2013-08-05 19:43:00,
2013-08-05 12:48:00,100.6,59.1,30.05,SSE,158,4.3,9.2,26,0.00,,,0.00,WUHU216HW,2013-08-05 19:48:00,
2013-08-05 12:54:00,101.3,59.8,30.04,SSW,203,3.4,9.6,26,0.00,,,0.00,WUHU216HW,2013-08-05 19:54:00,
2013-08-05 12:59:00,100.4,57.9,30.04,SSE,158,2.9,9.6,25,0.00,,,0.00,WUHU216HW,2013-08-05 19:59:00,
2013-08-05 13:04:00,100.3,58.9,30.04,South,180,2.2,8.5,26,0.00,,,0.00,WUHU216HW,2013-08-05 20:04:00,
2013-08-05 13:09:00,99.2,56.8,30.04,NW,315,1.3,6.9,25,0.00,,,0.00,WUHU216HW,2013-08-05 20:09:00,
2013-08-05 13:15:00,98.1,55.9,30.03,NNE,23,1.3,6.9,25,0.00,,,0.00,WUHU216HW,2013-08-05 20:15:00,
2013-08-05 13:20:00,97.2,55.1,30.04,NE,45,1.1,4.3,25,0.00,,,0.00,WUHU216HW,2013-08-05 20:20:00,
2013-08-05 13:25:00,96.8,55.9,30.03,ESE,113,2.5,7.6,26,0.00,,,0.00,WUHU216HW,2013-08-05 20:25:00,
2013-08-05 13:31:00,98.6,56.3,30.04,WNW,293,2.7,8.1,25,0.00,,,0.00,WUHU216HW,2013-08-05 20:31:00,
2013-08-05 13:36:00,99.4,55.8,30.04,NNW,338,2.5,7.8,24,0.00,,,0.00,WUHU216HW,2013-08-05 20:36:00,
2013-08-05 13:41:00,99.0,55.5,30.04,NNE,23,1.1,5.1,24,0.00,,,0.00,WUHU216HW,2013-08-05 20:41:00,
2013-08-05 13:46:00,98.8,55.4,30.04,West,270,3.1,6.5,24,0.00,,,0.00,WUHU216HW,2013-08-05 20:46:00,
2013-08-05 13:52:00,99.7,55.0,30.04,WSW,248,1.8,6.5,23,0.00,,,0.00,WUHU216HW,2013-08-05 20:52:00,
2013-08-05 13:58:00,99.5,54.8,30.03,West,270,1.1,9.2,23,0.00,,,0.00,WUHU216HW,2013-08-05 20:58:00,
2013-08-05 14:03:00,98.1,52.6,30.03,West,270,5.6,12.3,22,0.00,,,0.00,WUHU216HW,2013-08-05 21:03:00,
2013-08-05 14:08:00,97.0,52.7,30.02,WNW,293,9.8,12.3,23,0.00,,,0.00,WUHU216HW,2013-08-05 21:08:00,
2013-08-05 14:13:00,96.3,53.3,30.02,West,270,9.8,10.5,24,0.00,,,0.00,WUHU216HW,2013-08-05 21:13:00,
2013-08-05 14:18:00,95.8,52.7,30.01,WSW,248,5.6,11.2,24,0.00,,,0.00,WUHU216HW,2013-08-05 21:18:00,
2013-08-05 14:23:00,95.4,52.5,30.01,WNW,293,7.8,11.2,24,0.00,,,0.00,WUHU216HW,2013-08-05 21:23:00,
2013-08-05 14:28:00,95.2,52.3,30.00,NW,315,4.5,10.7,24,0.00,,,0.00,WUHU216HW,2013-08-05 21:28:00,
2013-08-05 14:33:00,94.7,53.0,30.00,NW,315,4.5,11.6,25,0.00,,,0.00,WUHU216HW,2013-08-05 21:33:00,
2013-08-05 14:38:00,94.7,53.0,29.99,North,0,4.9,11.6,25,0.00,,,0.00,WUHU216HW,2013-08-05 21:38:00,
2013-08-05 14:44:00,94.9,52.0,29.99,West,270,8.1,9.8,24,0.00,,,0.00,WUHU216HW,2013-08-05 21:44:00,
2013-08-05 14:49:00,95.0,52.2,29.99,West,270,11.0,15.4,24,0.00,,,0.00,WUHU216HW,2013-08-05 21:49:00,
2013-08-05 14:54:00,95.2,52.3,30.00,WSW,248,5.4,15.4,24,0.00,,,0.00,WUHU216HW,2013-08-05 21:54:00,
2013-08-05 14:59:00,95.2,53.5,30.00,NNW,338,1.8,15.4,25,0.00,,,0.00,WUHU216HW,2013-08-05 21:59:00,
2013-08-05 15:04:00,95.9,54.0,30.00,West,270,8.5,12.8,25,0.00,,,0.00,WUHU216HW,2013-08-05 22:04:00,
2013-08-05 15:09:00,95.9,54.0,30.00,NW,315,11.9,13.6,25,0.00,,,0.00,WUHU216HW,2013-08-05 22:09:00,
2013-08-05 15:14:00,95.0,54.4,30.00,West,270,8.5,13.6,26,0.00,,,0.00,WUHU216HW,2013-08-05 22:14:00,
2013-08-05 15:19:00,95.0,54.4,30.00,West,270,9.4,12.1,26,0.00,,,0.00,WUHU216HW,2013-08-05 22:19:00,
2013-08-05 15:24:00,95.4,53.6,30.00,West,270,8.3,12.3,25,0.00,,,0.00,WUHU216HW,2013-08-05 22:24:00,
2013-08-05 15:29:00,94.9,53.1,29.99,NNW,338,8.1,12.8,25,0.00,,,0.00,WUHU216HW,2013-08-05 22:29:00,
2013-08-05 15:34:00,94.1,53.7,29.99,WNW,293,13.4,13.4,26,0.00,,,0.00,WUHU216HW,2013-08-05 22:34:00,
2013-08-05 15:39:00,94.5,53.9,29.98,WSW,248,8.5,13.4,26,0.00,,,0.00,WUHU216HW,2013-08-05 22:39:00,
2013-08-05 15:44:00,95.8,55.0,29.98,SW,225,9.4,13.2,26,0.00,,,0.00,WUHU216HW,2013-08-05 22:44:00,
2013-08-05 15:49:00,96.1,54.2,29.98,West,270,9.4,14.5,25,0.00,,,0.00,WUHU216HW,2013-08-05 22:49:00,
2013-08-05 15:54:00,95.8,53.9,29.98,West,270,6.5,17.0,25,0.00,,,0.00,WUHU216HW,2013-08-05 22:54:00,
2013-08-05 15:59:00,95.4,54.7,29.97,West,270,9.6,17.0,26,0.00,,,0.00,WUHU216HW,2013-08-05 22:59:00,
2013-08-05 16:04:00,95.4,53.6,29.98,WSW,248,14.5,15.7,25,0.00,,,0.00,WUHU216HW,2013-08-05 23:04:00,
2013-08-05 16:09:00,95.0,54.4,29.98,NW,315,7.8,15.7,26,0.00,,,0.00,WUHU216HW,2013-08-05 23:09:00,
2013-08-05 16:14:00,94.7,54.1,29.98,NNW,338,7.6,14.5,26,0.00,,,0.00,WUHU216HW,2013-08-05 23:14:00,
2013-08-05 16:19:00,94.0,54.5,29.98,WNW,293,8.5,12.5,27,0.00,,,0.00,WUHU216HW,2013-08-05 23:19:00,
2013-08-05 16:24:00,93.6,54.3,29.98,West,270,6.0,11.2,27,0.00,,,0.00,WUHU216HW,2013-08-05 23:24:00,
2013-08-05 16:29:00,93.4,54.1,29.98,WNW,293,6.3,11.0,27,0.00,,,0.00,WUHU216HW,2013-08-05 23:29:00,
2013-08-05 16:34:00,93.6,54.3,29.98,North,0,6.7,11.0,27,0.00,,,0.00,WUHU216HW,2013-08-05 23:34:00,
2013-08-05 16:39:00,93.8,54.5,29.98,WNW,293,7.4,11.0,27,0.00,,,0.00,WUHU216HW,2013-08-05 23:39:00,
2013-08-05 16:45:00,94.0,54.5,29.98,NNW,338,7.6,12.1,27,0.00,,,0.00,WUHU216HW,2013-08-05 23:45:00,
2013-08-05 16:50:00,93.8,54.5,29.97,NW,315,8.1,12.8,27,0.00,,,0.00,WUHU216HW,2013-08-05 23:50:00,
2013-08-05 16:55:00,93.6,54.3,29.97,West,270,8.3,12.8,27,0.00,,,0.00,WUHU216HW,2013-08-05 23:55:00,
2013-08-05 17:01:00,94.0,54.5,29.96,WNW,293,8.9,12.3,27,0.00,,,0.00,WUHU216HW,2013-08-06 00:01:00,
2013-08-05 17:06:00,93.6,54.3,29.96,NNW,338,7.2,10.7,27,0.00,,,0.00,WUHU216HW,2013-08-06 00:06:00,
2013-08-05 17:11:00,92.9,53.6,29.96,WNW,293,10.1,12.5,27,0.00,,,0.00,WUHU216HW,2013-08-06 00:11:00,
2013-08-05 17:16:00,92.9,53.6,29.96,NW,315,10.5,12.5,27,0.00,,,0.00,WUHU216HW,2013-08-06 00:16:00,
2013-08-05 17:21:00,93.4,54.1,29.96,NW,315,10.5,10.5,27,0.00,,,0.00,WUHU216HW,2013-08-06 00:21:00,
2013-08-05 17:27:00,93.6,54.3,29.97,WNW,293,7.8,11.2,27,0.00,,,0.00,WUHU216HW,2013-08-06 00:27:00,
2013-08-05 17:32:00,93.1,53.8,29.97,NNW,338,8.3,11.4,27,0.00,,,0.00,WUHU216HW,2013-08-06 00:32:00,
2013-08-05 17:37:00,92.3,53.2,29.97,West,270,6.5,11.9,27,0.00,,,0.00,WUHU216HW,2013-08-06 00:37:00,
2013-08-05 17:42:00,91.8,55.0,29.98,WNW,293,7.6,11.9,29,0.00,,,0.00,WUHU216HW,2013-08-06 00:42:00,
2013-08-05 17:47:00,91.4,54.7,29.98,SW,225,8.7,11.4,29,0.00,,,0.00,WUHU216HW,2013-08-06 00:47:00,
2013-08-05 17:52:00,91.1,54.4,29.97,WNW,293,6.3,12.3,29,0.00,,,0.00,WUHU216HW,2013-08-06 00:52:00,
2013-08-05 17:57:00,91.3,54.5,29.96,NNW,338,11.0,12.5,29,0.00,,,0.00,WUHU216HW,2013-08-06 00:57:00,
2013-08-05 18:02:00,91.3,54.5,29.96,WSW,248,5.4,12.5,29,0.00,,,0.00,WUHU216HW,2013-08-06 01:02:00,
2013-08-05 18:08:00,91.6,54.8,29.96,NW,315,4.0,12.8,29,0.00,,,0.00,WUHU216HW,2013-08-06 01:08:00,
2013-08-05 18:13:00,91.4,54.7,29.96,NNW,338,6.3,12.8,29,0.00,,,0.00,WUHU216HW,2013-08-06 01:13:00,
2013-08-05 18:18:00,91.1,54.4,29.96,NNW,338,6.3,11.4,29,0.00,,,0.00,WUHU216HW,2013-08-06 01:18:00,
2013-08-05 18:23:00,90.9,55.4,29.96,NW,315,5.4,9.2,30,0.00,,,0.00,WUHU216HW,2013-08-06 01:23:00,
2013-08-05 18:28:00,90.7,55.2,29.96,North,0,6.7,10.1,30,0.00,,,0.00,WUHU216HW,2013-08-06 01:28:00,
2013-08-05 18:34:00,90.5,55.0,29.96,West,270,8.5,10.5,30,0.00,,,0.00,WUHU216HW,2013-08-06 01:34:00,
2013-08-05 18:39:00,90.4,55.6,29.96,WSW,248,7.6,11.0,31,0.00,,,0.00,WUHU216HW,2013-08-06 01:39:00,
2013-08-05 18:44:00,90.0,55.3,29.97,West,270,6.9,11.9,31,0.00,,,0.00,WUHU216HW,2013-08-06 01:44:00,
2013-08-05 18:49:00,89.6,55.8,29.97,West,270,8.7,11.9,32,0.00,,,0.00,WUHU216HW,2013-08-06 01:49:00,
2013-08-05 18:54:00,89.5,55.6,29.97,NNW,338,5.8,11.9,32,0.00,,,0.00,WUHU216HW,2013-08-06 01:54:00,
2013-08-05 18:59:00,89.3,56.3,29.98,WNW,293,7.8,11.4,33,0.00,,,0.00,WUHU216HW,2013-08-06 01:59:00,
2013-08-05 19:05:00,88.9,55.9,29.98,West,270,4.9,10.3,33,0.00,,,0.00,WUHU216HW,2013-08-06 02:05:00,
2013-08-05 19:10:00,88.6,55.6,29.98,WNW,293,6.9,12.8,33,0.00,,,0.00,WUHU216HW,2013-08-06 02:10:00,
2013-08-05 19:15:00,88.2,54.6,29.98,WNW,293,7.2,12.8,32,0.00,,,0.00,WUHU216HW,2013-08-06 02:15:00,
2013-08-05 19:20:00,87.8,55.0,29.98,WNW,293,6.9,10.5,33,0.00,,,0.00,WUHU216HW,2013-08-06 02:20:00,
2013-08-05 19:25:00,87.7,54.8,29.98,WNW,293,4.5,9.8,33,0.00,,,0.00,WUHU216HW,2013-08-06 02:25:00,
2013-08-05 19:30:00,87.5,54.7,29.98,West,270,7.6,9.8,33,0.00,,,0.00,WUHU216HW,2013-08-06 02:30:00,
2013-08-05 19:35:00,87.5,54.7,29.98,WNW,293,5.6,9.8,33,0.00,,,0.00,WUHU216HW,2013-08-06 02:35:00,
2013-08-05 19:41:00,87.3,54.5,29.98,West,270,6.3,8.9,33,0.00,,,0.00,WUHU216HW,2013-08-06 02:41:00,
2013-08-05 19:46:00,87.3,54.5,29.98,West,270,6.3,8.3,33,0.00,,,0.00,WUHU216HW,2013-08-06 02:46:00,
2013-08-05 19:51:00,87.1,54.4,30.00,NW,315,3.6,8.5,33,0.00,,,0.00,WUHU216HW,2013-08-06 02:51:00,
2013-08-05 19:56:00,87.1,54.4,30.00,WNW,293,5.8,8.5,33,0.00,,,0.00,WUHU216HW,2013-08-06 02:56:00,
2013-08-05 20:01:00,87.1,54.4,30.01,West,270,8.1,8.9,33,0.00,,,0.00,WUHU216HW,2013-08-06 03:01:00,
2013-08-05 20:06:00,86.8,54.9,30.01,WSW,248,5.4,11.0,34,0.00,,,0.00,WUHU216HW,2013-08-06 03:06:00,
2013-08-05 20:11:00,86.4,54.6,30.02,WNW,293,7.2,11.0,34,0.00,,,0.00,WUHU216HW,2013-08-06 03:11:00,
2013-08-05 20:17:00,86.0,55.1,30.02,WNW,293,6.7,10.5,35,0.00,,,0.00,WUHU216HW,2013-08-06 03:17:00,
2013-08-05 20:22:00,85.9,54.9,30.03,SSW,203,8.5,10.5,35,0.00,,,0.00,WUHU216HW,2013-08-06 03:22:00,
2013-08-05 20:27:00,85.5,56.2,30.03,WSW,248,10.3,12.3,37,0.00,,,0.00,WUHU216HW,2013-08-06 03:27:00,
2013-08-05 20:32:00,85.1,55.9,30.03,West,270,6.3,12.3,37,0.00,,,0.00,WUHU216HW,2013-08-06 03:32:00,
2013-08-05 20:38:00,84.8,56.4,30.03,WSW,248,4.7,9.8,38,0.00,,,0.00,WUHU216HW,2013-08-06 03:38:00,
2013-08-05 20:43:00,84.6,57.0,30.03,NW,315,5.6,9.8,39,0.00,,,0.00,WUHU216HW,2013-08-06 03:43:00,
2013-08-05 20:48:00,84.2,56.6,30.03,SW,225,3.4,7.2,39,0.00,,,0.00,WUHU216HW,2013-08-06 03:48:00,
2013-08-05 20:53:00,83.9,56.4,30.03,SW,225,0.4,6.3,39,0.00,,,0.00,WUHU216HW,2013-08-06 03:53:00,
2013-08-05 20:58:00,83.7,57.0,30.04,South,180,2.7,5.8,40,0.00,,,0.00,WUHU216HW,2013-08-06 03:58:00,
2013-08-05 21:01:00,83.7,57.6,30.04,SSW,203,4.5,5.8,41,0.00,,,0.00,WUHU216HW,2013-08-06 04:01:00,
2013-08-05 21:06:00,83.2,59.6,30.04,ESE,113,12.1,14.1,45,0.00,,,0.00,WUHU216HW,2013-08-06 04:06:00,
2013-08-05 21:11:00,81.9,60.9,30.05,East,90,11.0,14.5,49,0.00,,,0.00,WUHU216HW,2013-08-06 04:11:00,
2013-08-05 21:16:00,80.6,61.4,30.06,ESE,113,11.0,14.5,52,0.00,,,0.00,WUHU216HW,2013-08-06 04:16:00,
2013-08-05 21:21:00,79.6,61.9,30.06,East,90,6.9,12.8,55,0.00,,,0.00,WUHU216HW,2013-08-06 04:21:00,
2013-08-05 21:26:00,78.7,61.1,30.06,ENE,68,6.7,12.8,55,0.00,,,0.00,WUHU216HW,2013-08-06 04:26:00,
2013-08-05 21:31:00,78.1,61.1,30.07,East,90,10.7,14.5,56,0.00,,,0.00,WUHU216HW,2013-08-06 04:31:00,
2013-08-05 21:36:00,77.8,61.3,30.07,East,90,9.8,14.5,57,0.00,,,0.00,WUHU216HW,2013-08-06 04:36:00,
2013-08-05 21:41:00,77.6,61.1,30.07,ESE,113,12.3,13.9,57,0.00,,,0.00,WUHU216HW,2013-08-06 04:41:00,
2013-08-05 21:46:00,77.4,60.9,30.07,East,90,7.8,13.9,57,0.00,,,0.00,WUHU216HW,2013-08-06 04:46:00,
2013-08-05 21:51:00,77.4,61.5,30.07,East,90,17.0,17.0,58,0.00,,,0.00,WUHU216HW,2013-08-06 04:51:00,
2013-08-05 21:56:00,77.0,61.1,30.07,NE,45,14.5,17.0,58,0.00,,,0.00,WUHU216HW,2013-08-06 04:56:00,
2013-08-05 22:01:00,76.5,61.1,30.07,ESE,113,10.5,17.2,59,0.00,,,0.00,WUHU216HW,2013-08-06 05:01:00,
2013-08-05 22:06:00,75.8,60.9,30.06,East,90,15.7,17.2,60,0.00,,,0.00,WUHU216HW,2013-08-06 05:06:00,
2013-08-05 22:11:00,75.1,60.8,30.06,SE,135,12.1,17.2,61,0.00,,,0.00,WUHU216HW,2013-08-06 05:11:00,
2013-08-05 22:16:00,74.5,60.7,30.07,SE,135,9.8,15.7,62,0.00,,,0.00,WUHU216HW,2013-08-06 05:16:00,
2013-08-05 22:21:00,74.5,60.7,30.07,SSE,158,11.2,15.7,62,0.00,,,0.00,WUHU216HW,2013-08-06 05:21:00,
2013-08-05 22:26:00,74.3,60.5,30.07,SE,135,12.1,14.1,62,0.00,,,0.00,WUHU216HW,2013-08-06 05:26:00,
2013-08-05 22:31:00,74.3,60.5,30.07,SE,135,11.9,13.4,62,0.00,,,0.00,WUHU216HW,2013-08-06 05:31:00,
2013-08-05 22:36:00,74.3,60.5,30.08,ESE,113,5.4,13.6,62,0.00,,,0.00,WUHU216HW,2013-08-06 05:36:00,
2013-08-05 22:41:00,74.3,60.0,30.08,ESE,113,10.1,13.6,61,0.00,,,0.00,WUHU216HW,2013-08-06 05:41:00,
2013-08-05 22:46:00,74.5,60.2,30.08,East,90,7.4,11.6,61,0.00,,,0.00,WUHU216HW,2013-08-06 05:46:00,
2013-08-05 22:51:00,74.5,59.8,30.08,SSE,158,6.0,11.6,60,0.00,,,0.00,WUHU216HW,2013-08-06 05:51:00,
2013-08-05 22:56:00,74.5,59.8,30.08,SE,135,7.2,10.3,60,0.00,,,0.00,WUHU216HW,2013-08-06 05:56:00,
2013-08-05 23:01:00,74.5,59.8,30.08,SE,135,6.9,10.3,60,0.00,,,0.00,WUHU216HW,2013-08-06 06:01:00,
2013-08-05 23:06:00,74.5,59.8,30.07,East,90,4.0,10.3,60,0.00,,,0.00,WUHU216HW,2013-08-06 06:06:00,
2013-08-05 23:11:00,74.5,59.8,30.07,East,90,4.0,8.3,60,0.00,,,0.00,WUHU216HW,2013-08-06 06:11:00,
2013-08-05 23:16:00,74.5,59.8,30.07,East,90,5.6,7.8,60,0.00,,,0.00,WUHU216HW,2013-08-06 06:16:00,
2013-08-05 23:21:00,74.5,59.8,30.07,East,90,4.7,7.6,60,0.00,,,0.00,WUHU216HW,2013-08-06 06:21:00,
2013-08-05 23:26:00,74.5,60.2,30.07,ESE,113,2.7,7.2,61,0.00,,,0.00,WUHU216HW,2013-08-06 06:26:00,
2013-08-05 23:31:00,74.3,60.5,30.07,East,90,2.0,6.0,62,0.00,,,0.00,WUHU216HW,2013-08-06 06:31:00,
2013-08-05 23:36:00,74.2,61.2,30.06,ESE,113,4.0,6.7,64,0.00,,,0.00,WUHU216HW,2013-08-06 06:36:00,
2013-08-05 23:41:00,73.8,61.3,30.06,ESE,113,6.5,6.9,65,0.00,,,0.00,WUHU216HW,2013-08-06 06:41:00,
2013-08-05 23:46:00,73.6,61.6,30.05,ESE,113,4.7,7.6,66,0.00,,,0.00,WUHU216HW,2013-08-06 06:46:00,
2013-08-05 23:51:00,73.4,61.8,30.05,ESE,113,4.0,7.6,67,0.00,,,0.00,WUHU216HW,2013-08-06 06:51:00,
2013-08-05 23:56:00,73.4,61.8,30.05,SSE,158,3.1,6.0,67,0.00,,,0.00,WUHU216HW,2013-08-06 06:56:00,